• In Hungary
  • List of Countries
  • For 7 days
  • Water Temperature
  • Satellite Maps
  • Weather Map
  • News
  • Weather Widgets
  • user-avatar
    Login

    Hourly Weather Kedabek

    Today, 16 October, Tuesday

    Time Temperature Precipitation Wind Pressure Humidity
    00:00 +8°C° 0 mm 1 mps 624 mmHg 87%
    01:00 +8°C° 0 mm 1 mps 624 mmHg 87%
    02:00 +8°C° 0 mm 1 mps 624 mmHg 86%
    03:00 +8°C° 0 mm 1 mps 624 mmHg 86%
    04:00 +7°C° 0 mm 1 mps 624 mmHg 87%
    05:00 +7°C° 0 mm 1 mps 624 mmHg 88%
    06:00 +7°C° 0 mm 1 mps 624 mmHg 89%
    07:00 +8°C° 0 mm 1 mps 625 mmHg 83%
    08:00 +9°C° 0 mm 1 mps 625 mmHg 77%
    09:00 +10°C° 0 mm 2 mps 626 mmHg 69%
    10:00 +10°C° 0 mm 2 mps 626 mmHg 65%
    11:00 +12°C° 0 mm 2 mps 626 mmHg 61%
    12:00 +12°C° 0 mm 3 mps 626 mmHg 57%
    13:00 +12°C° 0 mm 3 mps 626 mmHg 57%
    14:00 +12°C° 0 mm 3 mps 626 mmHg 57%
    15:00 +13°C° 0 mm 3 mps 626 mmHg 57%
    16:00 +12°C° 0 mm 2 mps 626 mmHg 64%
    17:00 +10°C° 0 mm 2 mps 625 mmHg 71%
    18:00 +9°C° 0 mm 2 mps 625 mmHg 78%
    19:00 +9°C° 0 mm 1 mps 625 mmHg 80%
    20:00 +9°C° 0 mm 1 mps 625 mmHg 83%
    21:00 +8°C° 0 mm 1 mps 625 mmHg 85%
    22:00 +8°C° 0 mm 1 mps 625 mmHg 86%
    23:00 +8°C° 0 mm 1 mps 625 mmHg 88%

    Tomorrow, 17 October, Wednesday

    Time Temperature Precipitation Wind Pressure Humidity
    00:00 +7°C° 0 mm 1 mps 625 mmHg 89%
    01:00 +7°C° 0 mm 1 mps 625 mmHg 91%
    02:00 +7°C° 0 mm 1 mps 624 mmHg 92%
    03:00 +6°C° 0 mm 1 mps 624 mmHg 93%
    04:00 +6°C° 0 mm 1 mps 624 mmHg 92%
    05:00 +6°C° 0 mm 1 mps 624 mmHg 92%
    06:00 +5°C° 0 mm 0 mps 624 mmHg 92%
    07:00 +8°C° 0 mm 1 mps 624 mmHg 85%
    08:00 +9°C° 0 mm 1 mps 625 mmHg 78%
    09:00 +10°C° 0 mm 1 mps 625 mmHg 72%
    10:00 +10°C° 0 mm 2 mps 626 mmHg 67%
    11:00 +12°C° 0 mm 2 mps 626 mmHg 63%
    12:00 +12°C° 0 mm 3 mps 626 mmHg 58%
    13:00 +12°C° 0 mm 3 mps 625 mmHg 59%
    14:00 +12°C° 0 mm 3 mps 625 mmHg 60%
    15:00 +12°C° 0 mm 3 mps 625 mmHg 61%
    16:00 +12°C° 0 mm 2 mps 624 mmHg 69%
    17:00 +9°C° 0 mm 2 mps 624 mmHg 77%
    18:00 +9°C° 0 mm 1 mps 623 mmHg 84%
    19:00 +9°C° 0 mm 1 mps 623 mmHg 86%
    20:00 +8°C° 0 mm 1 mps 623 mmHg 87%
    21:00 +8°C° 0 mm 1 mps 623 mmHg 89%
    22:00 +8°C° 0 mm 1 mps 623 mmHg 89%
    23:00 +7°C° 0 mm 1 mps 623 mmHg 88%

    Day after tomorrow, 18 October, Thursday

    Time Temperature Precipitation Wind Pressure Humidity
    00:00 +7°C° 0 mm 1 mps 622 mmHg 88%
    01:00 +7°C° 0 mm 1 mps 622 mmHg 87%
    02:00 +7°C° 0 mm 1 mps 622 mmHg 85%
    03:00 +7°C° 0 mm 1 mps 622 mmHg 84%
    04:00 +7°C° 0 mm 1 mps 622 mmHg 82%
    05:00 +7°C° 0 mm 1 mps 622 mmHg 80%
    06:00 +7°C° 0 mm 1 mps 621 mmHg 78%
    07:00 +9°C° 0 mm 1 mps 622 mmHg 69%
    08:00 +11°C° 0 mm 1 mps 623 mmHg 60%
    09:00 +13°C° 0 mm 1 mps 624 mmHg 52%
    10:00 +14°C° 0 mm 1 mps 624 mmHg 48%
    11:00 +15°C° 0 mm 2 mps 624 mmHg 44%
    12:00 +16°C° 0 mm 2 mps 624 mmHg 40%
    13:00 +16°C° 0 mm 2 mps 624 mmHg 40%
    14:00 +16°C° 0 mm 2 mps 624 mmHg 41%
    15:00 +16°C° 0 mm 2 mps 624 mmHg 42%
    16:00 +15°C° 0 mm 2 mps 623 mmHg 50%
    17:00 +13°C° 0 mm 2 mps 623 mmHg 58%
    18:00 +11°C° 0 mm 1 mps 622 mmHg 66%
    19:00 +11°C° 0 mm 1 mps 622 mmHg 68%
    20:00 +10°C° 0 mm 1 mps 622 mmHg 70%
    21:00 +10°C° 0 mm 1 mps 623 mmHg 72%
    22:00 +9°C° 0 mm 1 mps 623 mmHg 73%
    23:00 +9°C° 0 mm 1 mps 623 mmHg 75%

    19 October, Friday

    Time Temperature Precipitation Wind Pressure Humidity
    00:00 +8°C° 0 mm 1 mps 623 mmHg 76%
    01:00 +8°C° 0 mm 1 mps 622 mmHg 78%
    02:00 +8°C° 0 mm 1 mps 622 mmHg 79%
    03:00 +6°C° 0 mm 0 mps 622 mmHg 80%
    04:00 +7°C° 0 mm 1 mps 622 mmHg 79%
    05:00 +7°C° 0 mm 1 mps 622 mmHg 78%
    06:00 +7°C° 0 mm 1 mps 622 mmHg 76%
    07:00 +8°C° 0 mm 1 mps 623 mmHg 69%
    08:00 +10°C° 0 mm 1 mps 623 mmHg 62%
    09:00 +12°C° 0 mm 1 mps 624 mmHg 55%
    10:00 +13°C° 0 mm 1 mps 624 mmHg 53%
    11:00 +14°C° 0 mm 2 mps 624 mmHg 50%
    12:00 +15°C° 0 mm 2 mps 624 mmHg 47%
    13:00 +15°C° 0 mm 2 mps 624 mmHg 48%
    14:00 +16°C° 0 mm 2 mps 624 mmHg 49%
    15:00 +16°C° 0 mm 2 mps 623 mmHg 50%
    16:00 +14°C° 0 mm 2 mps 623 mmHg 58%
    17:00 +13°C° 0 mm 1 mps 623 mmHg 66%
    18:00 +11°C° 0 mm 1 mps 622 mmHg 75%
    19:00 +11°C° 0 mm 1 mps 622 mmHg 75%
    20:00 +10°C° 0 mm 1 mps 622 mmHg 76%
    21:00 +10°C° 0 mm 1 mps 622 mmHg 77%
    22:00 +9°C° 0 mm 1 mps 622 mmHg 78%
    23:00 +9°C° 0 mm 1 mps 622 mmHg 78%

    20 October, Saturday

    Time Temperature Precipitation Wind Pressure Humidity
    00:00 +9°C° 0 mm 1 mps 622 mmHg 78%
    01:00 +8°C° 0 mm 1 mps 621 mmHg 78%
    02:00 +8°C° 0 mm 1 mps 621 mmHg 77%
    03:00 +8°C° 0 mm 1 mps 621 mmHg 77%
    04:00 +8°C° 0 mm 1 mps 621 mmHg 75%
    05:00 +8°C° 0 mm 1 mps 621 mmHg 74%
    06:00 +8°C° 0 mm 1 mps 621 mmHg 73%
    07:00 +10°C° 0 mm 1 mps 621 mmHg 67%
    08:00 +11°C° 0 mm 1 mps 622 mmHg 61%
    09:00 +13°C° 0 mm 1 mps 623 mmHg 55%
    10:00 +14°C° 0 mm 2 mps 623 mmHg 51%
    11:00 +16°C° 0 mm 2 mps 623 mmHg 48%
    12:00 +17°C° 0 mm 2 mps 623 mmHg 44%
    13:00 +17°C° 0 mm 2 mps 622 mmHg 44%
    14:00 +17°C° 0 mm 2 mps 622 mmHg 44%
    15:00 +17°C° 0 mm 2 mps 622 mmHg 44%
    16:00 +16°C° 0 mm 2 mps 621 mmHg 49%
    17:00 +14°C° 0 mm 1 mps 621 mmHg 54%
    18:00 +13°C° 0 mm 1 mps 621 mmHg 59%
    19:00 +12°C° 0 mm 1 mps 621 mmHg 59%
    20:00 +12°C° 0 mm 1 mps 621 mmHg 59%
    21:00 +12°C° 0 mm 1 mps 621 mmHg 59%
    22:00 +11°C° 0 mm 1 mps 620 mmHg 60%
    23:00 +11°C° 0 mm 1 mps 620 mmHg 62%

    21 October, Sunday

    Time Temperature Precipitation Wind Pressure Humidity
    00:00 +10°C° 0 mm 1 mps 620 mmHg 64%
    01:00 +10°C° 0 mm 1 mps 620 mmHg 64%
    02:00 +10°C° 0 mm 1 mps 620 mmHg 64%
    03:00 +10°C° 0 mm 1 mps 619 mmHg 64%
    04:00 +9°C° 0 mm 2 mps 619 mmHg 64%
    05:00 +9°C° 0 mm 2 mps 620 mmHg 65%
    06:00 +8°C° 0 mm 2 mps 620 mmHg 65%
    07:00 +10°C° 0 mm 2 mps 620 mmHg 60%
    08:00 +13°C° 0 mm 2 mps 621 mmHg 54%
    09:00 +14°C° 0 mm 2 mps 621 mmHg 49%
    10:00 +15°C° 0 mm 2 mps 621 mmHg 47%
    11:00 +16°C° 0 mm 2 mps 622 mmHg 44%
    12:00 +17°C° 0 mm 2 mps 622 mmHg 41%
    13:00 +17°C° 0 mm 2 mps 621 mmHg 41%
    14:00 +17°C° 0 mm 2 mps 621 mmHg 42%
    15:00 +17°C° 0 mm 2 mps 621 mmHg 42%
    16:00 +15°C° 0 mm 1 mps 620 mmHg 48%
    17:00 +14°C° 0 mm 1 mps 620 mmHg 53%
    18:00 +13°C° 0 mm 1 mps 620 mmHg 59%
    19:00 +12°C° 0 mm 1 mps 620 mmHg 61%
    20:00 +12°C° 0 mm 1 mps 620 mmHg 64%
    21:00 +11°C° 0 mm 1 mps 620 mmHg 67%
    22:00 +11°C° 0 mm 1 mps 620 mmHg 68%
    23:00 +10°C° 0 mm 1 mps 620 mmHg 69%
    Show more